Location: Tamazert
(32.6352°N, 5.2072°W)
Time: 13:47:07
(UTC+00:00)

Tiros 1 despin weight - Pass Details

Date: 06 October 2022
Orbit: 590 x 637 km, 48.2° (Epoch: 25 November)

Event Time Altitude Azimuth Distance (km) Brightness Sun altitude
Rises 19:20:31 0° 317° (NW) 2,877 ? -17.9°
Reaches altitude 10° 19:23:29 10° 337° (NNW) 1,981 ? -18.6°
Maximum altitude 19:26:36 18° 21° (NNE) 1,538 ? -19.2°
Enters shadow 19:27:16 17° 32° (NNE) 1,563 ? -19.4°
Drops below altitude 10° 19:29:44 10° 64° (ENE) 1,998 - -19.9°
Sets 19:32:44 0° 83° (E) 2,912 - -20.5°
